QPF
0.00 0.00 0.00 0.00 0.00 0.00 0.00 0.00 0.00 0.00 0.00 0.00 0.00 0.00 0.00 0.00 0.00 0.00 0.00 0.00 0.00 0.00 0.00 0.00 0.00 0.00 0.00 0.00 0.00 0.00 0.00 0.00 0.00 0.00 0.00 0.00 0.00 0.00 0.00 0.00 0.00 0.00 0.02 0.01
0.00 0.00 0.00 0.00 0.00 0.00 0.00 0.00 0.00 0.00 0.00 0.00 0.00 0.00 0.00 0.00 0.00 0.00 0.00 0.00 0.00 0.00 0.00 0.00 0.00 0.00 0.00 0.00 0.00 0.00 0.00 0.00 0.00 0.00 0.00 0.00 0.00 0.00 0.00 0.00 0.00 0.00 0.00 0.00
0.00 0.00 0.00 0.00 0.00 0.00 0.00 0.00 0.00 0.00 0.00 0.00 0.00 0.00 0.00 0.00 0.00 0.00 0.00 0.00 0.00 0.00 0.00 0.00 0.00 0.00 0.00 0.00 0.00 0.01 0.01 0.00 0.00 0.01 0.00 0.00 0.00 0.00 0.00 0.00 0.01 0.00 0.00 0.00
0.00 0.00 0.00 0.00 0.00 0.00 0.00 0.00 0.00 0.00 0.00 0.00 0.00 0.00 0.00 0.00 0.00 0.00 0.00 0.00 0.00 0.00 0.00 0.00 0.00 0.00 0.00 0.00 0.00 0.01 0.01 0.02 0.01 0.01 0.01 0.01 0.00 0.00 0.00 0.00 0.00 0.00 0.00 0.00
0.00 0.00 0.00 0.00 0.00 0.00 0.00 0.00 0.00 0.00 0.00 0.00 0.00 0.00 0.00 0.00 0.00 0.00 0.00 0.00 0.00 0.00 0.00 0.00 0.00 0.00 0.00 0.00 0.01 0.02 0.02 0.01 0.01 0.01 0.01 0.01 0.01 0.01 0.02 0.01 0.02 0.03 0.01 0.02
0.00 0.00 0.00 0.00 0.00 0.00 0.00 0.00 0.00 0.00 0.00 0.00 0.00 0.00 0.00 0.00 0.00 0.00 0.00 0.00 0.00 0.00 0.00 0.00 0.00 0.00 0.00 0.00 0.01 0.03 0.04 0.01 0.00 0.00 0.01 0.01 0.02 0.02 0.03 0.04 0.03 0.02 0.02 0.01
0.00 0.00 0.00 0.00 0.00 0.00 0.00 0.00 0.00 0.00 0.00 0.00 0.00 0.00 0.00 0.00 0.00 0.00 0.00 0.00 0.00 0.00 0.00 0.00 0.00 0.00 0.00 0.00 0.00 0.00 0.00 0.01 0.00 0.00 0.00 0.01 0.01 0.02 0.02 0.03 0.01 0.01 0.00 0.00
0.00 0.00 0.00 0.00 0.00 0.00 0.00 0.00 0.00 0.00 0.00 0.00 0.00 0.00 0.00 0.00 0.00 0.00 0.00 0.00 0.00 0.00 0.00 0.00 0.00 0.00 0.00 0.01 0.01 0.01 0.01 0.00 0.00 0.01 0.02 0.03 0.03 0.02 0.01 0.00 0.00 0.00 0.01 0.00
0.00 0.00 0.00 0.00 0.00 0.00 0.00 0.00 0.00 0.00 0.00 0.00 0.00 0.00 0.00 0.00 0.00 0.00 0.00 0.00 0.00 0.00 0.00 0.00 0.00 0.00 0.01 0.02 0.00 0.01 0.00 0.00 0.00 0.00 0.01 0.00 0.00 0.00 0.01 0.01 0.01 0.00 0.00 0.00
0.00 0.00 0.00 0.00 0.00 0.00 0.00 0.00 0.00 0.00 0.00 0.00 0.00 0.00 0.00 0.00 0.00 0.00 0.00 0.00 0.00 0.00 0.00 0.00 0.00 0.00 0.00 0.01 0.04 0.01 0.01 0.00 0.00 0.00 0.00 0.00 0.00 0.00 0.00 0.00 0.00 0.00 0.00 0.00
0.00 0.00 0.00 0.00 0.00 0.00 0.00 0.00 0.00 0.00 0.00 0.00 0.00 0.00 0.00 0.00 0.00 0.00 0.00 0.00 0.00 0.00 0.00 0.00 0.00 0.00 0.00 0.01 0.02 0.03 0.04 0.01 0.00 0.00 0.00 0.00 0.00 0.00 0.00 0.00 0.00 0.00 0.00 0.00
0.00 0.00 0.00 0.00 0.00 0.00 0.00 0.00 0.00 0.00 0.00 0.00 0.00 0.00 0.00 0.00 0.00 0.00 0.00 0.00 0.00 0.00 0.00 0.00 0.00 0.00 0.00 0.00 0.01 0.03 0.05 0.07 0.01 0.00 0.00 0.01 0.01 0.03 0.02 0.00 0.00 0.00 0.00 0.00
0.00 0.00 0.00 0.00 0.00 0.00 0.00 0.00 0.00 0.00 0.00 0.00 0.00 0.00 0.00 0.00 0.00 0.00 0.00 0.00 0.00 0.00 0.00 0.00 0.00 0.00 0.00 0.00 0.00 0.01 0.07 0.12 0.08 0.01 0.01 0.03 0.04 0.05 0.06 0.03 0.03 0.02 0.01 0.00
0.00 0.00 0.00 0.00 0.00 0.00 0.00 0.00 0.00 0.00 0.00 0.00 0.00 0.00 0.00 0.00 0.00 0.00 0.00 0.00 0.00 0.00 0.00 0.00 0.00 0.00 0.00 0.00 0.00 0.00 0.00 0.05 0.08 0.05 0.02 0.04 0.05 0.05 0.04 0.02 0.00 0.00 0.00 0.00
0.00 0.00 0.00 0.00 0.00 0.00 0.00 0.00 0.00 0.00 0.00 0.00 0.00 0.00 0.00 0.00 0.00 0.00 0.00 0.00 0.00 0.00 0.00 0.00 0.00 0.00 0.00 0.00 0.00 0.00 0.00 0.00 0.01 0.01 0.02 0.02 0.01 0.01 0.00 0.00 0.00 0.00 0.01 0.00
0.00 0.00 0.00 0.00 0.00 0.00 0.00 0.00 0.00 0.00 0.00 0.00 0.00 0.00 0.00 0.00 0.00 0.00 0.00 0.00 0.03 0.05 0.01 0.00 0.00 0.00 0.01 0.02 0.01 0.00 0.01 0.00 0.00 0.01 0.01 0.00 0.01 0.02 0.00 0.00 0.00 0.00 0.00 0.00
0.00 0.00 0.00 0.00 0.00 0.00 0.00 0.00 0.00 0.00 0.00 0.00 0.00 0.00 0.00 0.00 0.00 0.00 0.00 0.00 0.00 0.00 0.00 0.00 0.00 0.00 0.00 0.01 0.00 0.01 0.01 0.01 0.01 0.00 0.01 0.00 0.00 0.00 0.00 0.00 0.00 0.00 0.00 0.00
0.00 0.00 0.00 0.00 0.00 0.00 0.00 0.00 0.00 0.00 0.00 0.00 0.00 0.00 0.00 0.00 0.00 0.00 0.00 0.00 0.00 0.00 0.00 0.00 0.00 0.00 0.00 0.00 0.00 0.00 0.00 0.00 0.00 0.00 0.00 0.00 0.00 0.00 0.00 0.00 0.00 0.00 0.00 0.00
0.00 0.00 0.00 0.00 0.00 0.00 0.00 0.00 0.00 0.00 0.00 0.00 0.00 0.00 0.00 0.00 0.00 0.00 0.00 0.00 0.00 0.00 0.00 0.00 0.00 0.00 0.00 0.00 0.00 0.00 0.00 0.00 0.00 0.00 0.00 0.00 0.00 0.00 0.00 0.00 0.00 0.00 0.00 0.00
0.00 0.00 0.00 0.00 0.00 0.00 0.00 0.00 0.00 0.00 0.00 0.00 0.00 0.00 0.00 0.00 0.00 0.00 0.00 0.00 0.00 0.00 0.00 0.00 0.00 0.00 0.00 0.00 0.00 0.00 0.00 0.00 0.00 0.00 0.00 0.00 0.00 0.00 0.00 0.00 0.00 0.00 0.00 0.00
0.00 0.00 0.00 0.00 0.00 0.00 0.00 0.00 0.00 0.00 0.00 0.00 0.00 0.00 0.00 0.00 0.00 0.00 0.00 0.00 0.00 0.00 0.00 0.00 0.00 0.00 0.00 0.00 0.00 0.00 0.00 0.00 0.00 0.00 0.00 0.00 0.00 0.00 0.00 0.00 0.00 0.00 0.00 0.00
0.00 0.00 0.00 0.00 0.00 0.00 0.00 0.00 0.00 0.00 0.00 0.00 0.00 0.00 0.00 0.00 0.00 0.00 0.00 0.00 0.00 0.00 0.00 0.00 0.00 0.00 0.00 0.00 0.00 0.00 0.00 0.00 0.00 0.00 0.00 0.00 0.00 0.00 0.00 0.00 0.00 0.00 0.00 0.00
0.00 0.00 0.00 0.00 0.00 0.00 0.00 0.00 0.00 0.00 0.00 0.00 0.00 0.00 0.00 0.00 0.00 0.00 0.00 0.00 0.00 0.00 0.00 0.00 0.00 0.00 0.00 0.00 0.00 0.00 0.00 0.00 0.00 0.00 0.00 0.00 0.00 0.00 0.00 0.00 0.00 0.00 0.00 0.00
0.00 0.00 0.00 0.00 0.00 0.00 0.00 0.00 0.00 0.00 0.00 0.00 0.00 0.00 0.00 0.00 0.00 0.00 0.00 0.00 0.00 0.00 0.00 0.00 0.00 0.00 0.00 0.00 0.00 0.00 0.00 0.00 0.00 0.00 0.00 0.00 0.00 0.00 0.00 0.00 0.00 0.00 0.00 0.00
0.00 0.00 0.00 0.00 0.00 0.00 0.00 0.00 0.00 0.00 0.00 0.00 0.00 0.00 0.00 0.00 0.00 0.00 0.00 0.00 0.00 0.00 0.00 0.00 0.00 0.00 0.00 0.00 0.00 0.00 0.00 0.00 0.00 0.00 0.00 0.00 0.00 0.00 0.00 0.00 0.00 0.00 0.00 0.00
0.00 0.00 0.00 0.00 0.00 0.00 0.00 0.00 0.00 0.00 0.00 0.00 0.00 0.00 0.00 0.00 0.00 0.00 0.00 0.00 0.00 0.00 0.00 0.00 0.00 0.00 0.00 0.00 0.00 0.00 0.00 0.00 0.00 0.00 0.00 0.00 0.00 0.00 0.00 0.00 0.00 0.00 0.00 0.00
0.00 0.00 0.00 0.00 0.00 0.00 0.00 0.00 0.00 0.00 0.00 0.00 0.00 0.00 0.00 0.00 0.00 0.00 0.00 0.00 0.00 0.00 0.00 0.00 0.00 0.00 0.00 0.00 0.00 0.00 0.00 0.00 0.00 0.00 0.00 0.00 0.00 0.00 0.00 0.00 0.00 0.00 0.00 0.00
MSLP
1001.61 1002.14 1002.58 1002.68 1002.66 1003.15 1003.14 1002.94 1002.81 1002.53 1003.30 1003.66 1004.93 1005.58 1006.32 1007.06 1007.76 1008.17 1008.48 1008.97 1009.45 1009.98 1010.89 1011.32 1011.31 1011.32 1011.55 1011.36 1010.92 1011.11 1011.04 1010.84 1011.13 1011.61 1011.94 1012.21 1012.58 1013.01 1013.53 1013.85 1014.15 1014.37 1014.61 1015.06
1002.01 1002.56 1002.80 1002.72 1002.76 1002.84 1003.03 1003.00 1003.13 1003.21 1003.24 1003.50 1004.96 1005.89 1006.31 1007.02 1007.58 1007.97 1008.40 1008.92 1009.46 1009.91 1010.42 1011.03 1011.21 1011.40 1011.32 1011.59 1011.26 1010.89 1011.08 1010.89 1011.01 1011.26 1011.66 1011.96 1012.33 1012.75 1013.10 1013.43 1013.68 1013.91 1014.13 1014.35
1001.99 1002.41 1002.92 1002.64 1002.32 1002.42 1002.54 1002.83 1002.96 1002.81 1003.00 1004.14 1005.14 1005.75 1006.29 1006.88 1007.54 1007.99 1008.45 1009.01 1009.49 1009.94 1010.42 1010.88 1011.07 1011.20 1011.63 1011.68 1011.53 1011.22 1010.88 1010.79 1011.09 1011.35 1011.61 1011.77 1012.04 1012.37 1012.65 1012.94 1013.21 1013.50 1013.75 1014.04
1002.49 1002.74 1002.55 1001.94 1002.23 1002.24 1002.23 1002.32 1002.56 1002.99 1003.51 1004.42 1004.86 1005.63 1006.38 1006.82 1007.20 1007.97 1008.57 1009.18 1009.64 1010.00 1010.47 1010.87 1011.16 1011.23 1011.47 1011.58 1011.33 1011.32 1011.12 1011.11 1011.30 1011.52 1011.69 1011.70 1011.86 1011.89 1012.08 1012.36 1012.60 1012.97 1013.23 1013.51
1002.74 1002.53 1002.00 1002.09 1002.36 1002.65 1002.47 1002.27 1002.34 1002.68 1003.38 1004.55 1005.08 1005.86 1006.69 1007.14 1007.49 1007.98 1008.57 1009.26 1009.78 1010.16 1010.60 1010.95 1011.11 1011.31 1011.52 1011.33 1011.52 1011.58 1011.27 1011.38 1011.51 1011.53 1011.61 1011.52 1011.50 1011.55 1011.70 1012.01 1012.18 1012.48 1012.63 1012.93
1003.26 1002.51 1001.32 1001.19 1001.48 1002.34 1002.69 1002.05 1001.97 1002.41 1003.42 1004.48 1005.13 1005.10 1005.82 1007.22 1007.76 1008.27 1008.76 1009.29 1009.78 1010.21 1010.65 1010.85 1011.12 1011.36 1011.29 1011.34 1011.26 1011.37 1011.52 1011.74 1011.65 1011.52 1011.57 1011.51 1011.49 1011.32 1011.54 1011.94 1012.49 1012.96 1013.31 1013.51
1002.75 1002.39 1001.62 1001.59 1002.31 1002.85 1002.74 1002.05 1001.87 1002.51 1003.34 1004.22 1004.71 1005.31 1005.98 1007.17 1007.85 1008.36 1008.92 1009.50 1009.96 1010.34 1010.49 1010.83 1011.18 1011.31 1011.18 1011.24 1011.26 1011.24 1011.57 1011.80 1011.59 1011.76 1011.94 1011.85 1011.57 1011.79 1011.72 1012.40 1013.04 1013.68 1014.21 1014.63
1002.81 1002.20 1001.80 1002.07 1002.78 1002.52 1002.16 1002.25 1002.54 1003.04 1003.73 1004.39 1005.32 1006.18 1006.75 1007.33 1007.87 1008.37 1008.96 1009.55 1009.92 1010.13 1010.47 1010.92 1011.43 1011.63 1011.55 1011.34 1011.38 1011.30 1011.35 1011.61 1011.82 1011.78 1011.80 1011.74 1011.36 1011.58 1011.82 1012.57 1013.30 1013.83 1014.32 1014.89
1002.91 1002.26 1002.38 1002.06 1001.93 1002.30 1002.32 1002.52 1002.79 1003.14 1003.93 1004.68 1005.57 1006.16 1006.77 1007.29 1007.79 1008.34 1008.88 1009.36 1009.65 1009.96 1010.37 1010.88 1011.49 1011.67 1011.62 1011.86 1011.93 1011.80 1011.91 1012.28 1012.42 1012.44 1012.43 1012.59 1012.49 1012.32 1012.59 1013.10 1013.45 1013.97 1014.31 1014.93
1004.03 1002.48 1002.59 1002.62 1002.41 1002.36 1002.58 1002.45 1002.86 1003.26 1004.06 1004.68 1005.18 1005.80 1006.43 1007.00 1007.64 1008.23 1008.85 1009.32 1009.61 1010.00 1010.28 1010.64 1011.37 1011.60 1011.85 1012.17 1012.19 1012.05 1012.26 1012.84 1013.02 1012.88 1013.17 1013.36 1013.23 1013.34 1013.63 1013.86 1014.08 1014.20 1014.70 1015.23
1003.87 1003.14 1003.13 1002.90 1002.83 1002.67 1002.94 1003.19 1003.38 1003.81 1004.09 1004.59 1004.97 1005.74 1006.31 1007.10 1007.64 1008.16 1008.73 1009.28 1009.60 1009.92 1010.21 1010.57 1011.07 1011.67 1011.91 1012.26 1012.39 1012.44 1012.77 1013.06 1013.37 1013.56 1013.68 1014.24 1015.00 1014.62 1014.61 1014.65 1014.64 1014.91 1015.35 1015.71
1003.47 1003.08 1002.67 1002.27 1002.89 1003.25 1003.12 1003.38 1003.64 1003.96 1004.55 1005.17 1005.62 1006.05 1006.67 1007.12 1007.74 1008.22 1008.69 1009.22 1009.65 1009.98 1010.21 1010.55 1010.95 1011.40 1011.85 1012.22 1012.48 1012.78 1012.93 1013.23 1013.55 1013.86 1014.16 1014.61 1014.98 1015.30 1015.61 1015.54 1015.24 1015.42 1015.95 1015.87
1003.96 1004.10 1003.06 1002.43 1002.91 1003.46 1003.29 1003.72 1004.13 1004.40 1004.92 1005.37 1005.92 1006.31 1006.81 1007.19 1007.80 1008.33 1008.74 1009.10 1009.42 1009.74 1010.11 1010.56 1010.86 1011.20 1011.81 1012.20 1012.36 1012.78 1013.00 1013.31 1013.73 1013.96 1014.05 1014.53 1015.06 1015.28 1015.87 1016.73 1016.43 1016.50 1016.67 1016.79
1004.34 1004.00 1003.62 1003.08 1003.06 1003.31 1003.58 1004.12 1004.75 1005.03 1005.55 1005.99 1006.34 1006.75 1007.08 1007.45 1008.07 1008.36 1008.59 1008.91 1009.33 1009.72 1010.20 1010.58 1010.76 1011.10 1011.78 1012.26 1012.46 1012.77 1013.09 1013.41 1013.69 1013.99 1014.21 1014.47 1014.62 1015.35 1015.63 1016.03 1016.36 1017.04 1017.56 1017.62
1004.32 1004.12 1003.90 1003.61 1003.41 1003.48 1003.72 1004.24 1004.70 1005.04 1005.57 1006.03 1006.47 1006.84 1007.23 1007.53 1007.86 1008.19 1008.53 1008.93 1009.27 1009.67 1010.12 1010.59 1010.76 1011.13 1011.66 1012.12 1012.42 1012.72 1012.98 1013.37 1013.74 1014.11 1014.26 1014.47 1014.50 1015.19 1015.66 1015.97 1016.48 1017.02 1017.63 1018.16
1004.06 1004.13 1004.00 1003.66 1003.71 1003.77 1003.96 1004.30 1004.54 1004.91 1005.51 1005.94 1006.34 1006.78 1007.11 1007.37 1007.73 1008.13 1008.59 1009.00 1009.30 1009.69 1010.12 1010.62 1010.88 1011.10 1011.52 1012.06 1012.28 1012.64 1012.91 1013.17 1013.70 1013.87 1014.40 1014.73 1014.70 1014.91 1015.51 1015.84 1016.22 1016.64 1016.96 1017.23
1004.09 1003.83 1003.73 1003.62 1003.71 1003.80 1003.99 1004.15 1004.59 1004.94 1005.46 1005.99 1006.34 1006.77 1007.13 1007.38 1007.71 1008.13 1008.55 1008.96 1009.30 1009.67 1010.17 1010.61 1010.78 1011.44 1011.67 1012.04 1012.25 1012.11 1012.62 1013.21 1013.30 1013.74 1013.98 1014.23 1014.26 1014.42 1014.54 1014.99 1015.37 1015.31 1015.58 1016.26
1003.82 1003.75 1003.69 1003.59 1003.70 1003.67 1003.87 1004.24 1004.66 1005.06 1005.45 1005.89 1006.38 1006.77 1007.06 1007.31 1007.51 1008.08 1008.51 1009.01 1009.44 1009.84 1010.18 1010.57 1011.00 1011.44 1011.65 1011.72 1011.48 1011.36 1011.51 1012.19 1012.34 1012.54 1013.01 1013.23 1013.28 1013.46 1013.49 1013.88 1014.47 1014.60 1015.08 1016.42
1003.77 1003.60 1003.63 1003.71 1003.72 1003.67 1003.79 1003.86 1004.24 1004.91 1005.46 1005.86 1006.34 1006.64 1006.94 1007.23 1007.56 1008.01 1008.50 1008.94 1009.26 1009.63 1010.04 1010.65 1011.48 1011.68 1011.58 1011.72 1011.75 1011.29 1011.25 1011.61 1011.99 1012.34 1012.62 1013.17 1013.19 1013.16 1013.31 1013.62 1013.92 1014.13 1014.53 1015.47
1003.20 1003.20 1003.27 1003.30 1003.41 1003.54 1003.66 1003.97 1004.27 1004.73 1005.28 1005.68 1006.15 1006.54 1006.90 1007.23 1007.63 1008.05 1008.50 1008.73 1008.84 1008.94 1009.55 1010.36 1011.14 1011.11 1011.30 1011.69 1011.93 1010.97 1011.11 1011.29 1011.60 1011.91 1012.30 1012.38 1012.53 1012.89 1013.20 1013.51 1013.44 1013.82 1014.26 1014.77
1002.68 1002.41 1002.45 1002.73 1002.94 1003.11 1003.46 1003.75 1004.10 1004.51 1005.04 1005.49 1005.92 1006.31 1006.64 1007.05 1007.52 1007.91 1008.30 1008.32 1008.74 1009.41 1009.73 1010.45 1010.53 1010.54 1011.04 1011.35 1011.59 1010.63 1010.72 1011.01 1011.39 1011.63 1012.08 1012.13 1012.28 1012.42 1012.75 1013.11 1013.37 1013.57 1013.96 1014.24
1002.54 1002.11 1001.91 1002.12 1002.35 1002.65 1003.11 1003.41 1003.86 1004.34 1004.85 1005.33 1005.75 1006.09 1006.44 1006.88 1007.32 1007.63 1007.77 1007.83 1007.95 1009.54 1009.49 1009.75 1010.16 1010.40 1010.49 1011.25 1010.78 1010.29 1010.28 1010.60 1010.89 1011.17 1011.51 1011.64 1011.79 1012.03 1012.26 1012.59 1012.88 1013.11 1013.39 1013.66
1002.80 1002.45 1002.24 1002.09 1002.17 1002.39 1002.84 1003.35 1003.74 1004.18 1004.60 1005.08 1005.48 1005.77 1006.05 1006.04 1006.51 1006.73 1007.15 1007.91 1007.77 1009.17 1009.04 1009.04 1009.54 1010.44 1011.11 1011.08 1010.48 1010.11 1010.10 1010.34 1010.58 1010.77 1011.00 1011.14 1011.27 1011.53 1011.79 1012.15 1012.38 1012.48 1012.75 1013.04
1003.20 1002.85 1002.74 1002.70 1002.58 1002.62 1002.96 1003.31 1003.50 1004.03 1004.56 1005.02 1005.25 1005.53 1005.68 1005.67 1005.94 1006.27 1006.24 1007.22 1007.91 1008.75 1008.79 1008.66 1009.54 1010.36 1010.93 1010.65 1010.46 1010.29 1010.14 1010.23 1010.43 1010.51 1010.64 1011.19 1010.94 1011.05 1011.19 1011.47 1011.86 1012.04 1012.31 1012.80
1003.70 1003.35 1002.92 1002.88 1002.77 1002.61 1002.87 1003.32 1003.58 1003.90 1004.31 1004.54 1004.95 1005.23 1005.34 1005.30 1005.27 1005.51 1006.11 1006.64 1007.94 1008.52 1008.48 1009.07 1009.54 1010.17 1010.49 1010.04 1010.01 1010.16 1010.26 1010.38 1010.46 1010.57 1010.57 1010.64 1010.77 1011.00 1011.16 1011.16 1011.20 1011.34 1011.59 1011.82
1004.12 1003.69 1003.32 1003.21 1002.71 1002.44 1002.52 1003.08 1002.79 1003.06 1003.46 1003.70 1004.07 1004.49 1004.66 1004.90 1005.21 1005.68 1006.08 1006.51 1006.83 1007.89 1007.59 1007.80 1008.83 1009.69 1009.49 1009.23 1009.19 1009.35 1009.57 1009.71 1010.00 1010.29 1010.34 1010.05 1010.06 1010.24 1010.35 1010.48 1010.53 1010.72 1011.03 1011.08
1003.93 1003.98 1003.48 1003.01 1002.64 1002.70 1002.68 1002.75 1002.28 1002.30 1002.90 1002.91 1003.21 1003.69 1003.95 1004.40 1004.86 1005.34 1005.60 1005.87 1006.15 1006.57 1006.85 1006.96 1007.33 1008.23 1008.41 1008.31 1008.37 1008.44 1008.50 1008.65 1008.87 1008.89 1009.11 1009.40 1009.54 1009.54 1009.67 1009.80 1010.01 1010.23 1010.46 1010.63
Thickness
5771 5765 5761 5757 5755 5752 5748 5757 5745 5762 5751 5761 5757 5757 5755 5755 5752 5750 5750 5749 5749 5748 5742 5741 5747 5752 5754 5762 5771 5772 5774 5779 5778 5780 5782 5782 5781 5780 5780 5781 5780 5780 5780 5778
5750 5754 5752 5743 5752 5752 5751 5754 5751 5753 5750 5772 5762 5755 5753 5749 5747 5746 5747 5746 5745 5745 5744 5741 5741 5745 5750 5753 5761 5771 5770 5773 5777 5777 5777 5778 5777 5776 5775 5776 5778 5778 5778 5778
5733 5748 5737 5724 5745 5749 5751 5755 5752 5739 5756 5757 5748 5746 5746 5745 5743 5741 5742 5742 5741 5740 5739 5738 5740 5742 5741 5746 5753 5759 5765 5770 5770 5771 5769 5771 5773 5773 5772 5771 5772 5772 5773 5774
5729 5729 5695 5747 5761 5759 5752 5756 5760 5755 5753 5750 5751 5750 5748 5749 5746 5740 5738 5736 5735 5737 5736 5735 5735 5737 5737 5738 5745 5748 5753 5758 5761 5761 5762 5766 5767 5769 5771 5771 5770 5769 5770 5772
5718 5717 5735 5739 5745 5740 5736 5740 5759 5753 5752 5746 5748 5744 5736 5743 5744 5740 5737 5734 5732 5732 5731 5730 5730 5730 5730 5733 5735 5736 5743 5747 5751 5755 5756 5760 5762 5764 5767 5768 5769 5769 5771 5770
5712 5702 5707 5746 5758 5759 5750 5722 5758 5757 5747 5739 5740 5728 5734 5737 5737 5734 5733 5731 5728 5727 5725 5725 5725 5725 5724 5726 5727 5728 5730 5733 5740 5746 5749 5751 5755 5759 5760 5760 5758 5758 5758 5759
5714 5705 5728 5748 5750 5749 5708 5725 5757 5754 5747 5740 5734 5737 5739 5735 5731 5731 5728 5725 5722 5720 5719 5719 5720 5720 5719 5720 5720 5724 5724 5725 5731 5733 5734 5739 5745 5746 5750 5747 5746 5743 5741 5740
5713 5700 5695 5747 5736 5721 5740 5750 5749 5745 5741 5736 5733 5728 5726 5726 5724 5724 5720 5718 5718 5715 5714 5714 5711 5710 5710 5712 5717 5719 5720 5721 5719 5723 5726 5730 5737 5739 5739 5736 5732 5730 5729 5728
5705 5713 5729 5742 5744 5748 5750 5743 5743 5742 5738 5734 5724 5721 5721 5720 5719 5718 5716 5714 5714 5712 5710 5708 5705 5704 5704 5703 5705 5709 5710 5707 5708 5708 5712 5713 5716 5719 5720 5720 5720 5719 5720 5718
5689 5718 5720 5724 5739 5744 5743 5744 5743 5742 5736 5731 5723 5724 5720 5719 5715 5713 5712 5709 5710 5707 5705 5703 5700 5700 5697 5695 5697 5701 5701 5698 5698 5699 5698 5698 5702 5705 5704 5703 5703 5705 5704 5703
5683 5704 5708 5717 5726 5733 5733 5735 5733 5732 5730 5726 5725 5720 5719 5712 5709 5709 5707 5704 5704 5701 5700 5698 5696 5691 5690 5688 5689 5689 5688 5688 5688 5688 5686 5685 5680 5685 5689 5688 5689 5690 5689 5687
5676 5702 5706 5714 5718 5723 5724 5723 5726 5723 5717 5716 5714 5711 5710 5707 5705 5703 5701 5698 5694 5692 5692 5691 5689 5686 5683 5681 5680 5678 5679 5679 5680 5679 5677 5676 5675 5673 5668 5670 5674 5672 5672 5677
5679 5687 5703 5715 5717 5715 5718 5718 5718 5716 5712 5707 5707 5705 5703 5701 5700 5695 5694 5691 5688 5685 5683 5681 5680 5677 5673 5671 5671 5669 5672 5672 5670 5671 5672 5669 5668 5666 5662 5651 5654 5655 5654 5656
5678 5684 5687 5701 5701 5711 5713 5711 5706 5706 5702 5699 5699 5698 5697 5694 5690 5688 5685 5684 5680 5675 5670 5667 5666 5664 5660 5659 5659 5660 5662 5663 5662 5663 5666 5664 5664 5657 5656 5653 5652 5649 5643 5646
5670 5680 5686 5696 5702 5704 5706 5703 5698 5695 5694 5693 5694 5692 5689 5686 5683 5680 5678 5676 5672 5665 5659 5654 5652 5650 5650 5650 5650 5650 5651 5653 5654 5652 5654 5652 5653 5650 5647 5646 5643 5640 5638 5636
5670 5675 5680 5685 5688 5693 5694 5694 5692 5691 5689 5689 5688 5686 5685 5683 5679 5675 5672 5668 5661 5654 5650 5644 5642 5645 5644 5641 5642 5642 5643 5643 5642 5644 5642 5641 5643 5641 5638 5638 5637 5637 5637 5638
5656 5663 5671 5675 5681 5685 5686 5692 5690 5688 5686 5684 5683 5681 5679 5676 5674 5669 5665 5662 5658 5652 5646 5640 5638 5636 5636 5635 5635 5638 5636 5634 5636 5638 5638 5636 5638 5639 5640 5639 5637 5640 5642 5638
5663 5668 5673 5677 5678 5682 5684 5686 5686 5685 5682 5682 5680 5676 5672 5670 5668 5663 5660 5656 5650 5645 5642 5638 5634 5631 5630 5631 5634 5637 5639 5637 5640 5640 5638 5638 5639 5640 5642 5640 5637 5638 5637 5627
5659 5663 5667 5670 5675 5679 5682 5685 5686 5684 5681 5678 5674 5671 5670 5668 5665 5660 5656 5650 5644 5639 5638 5635 5628 5627 5628 5628 5628 5634 5635 5635 5633 5633 5632 5626 5630 5633 5633 5632 5631 5632 5631 5622
5658 5663 5665 5669 5673 5677 5679 5682 5685 5682 5679 5676 5672 5668 5665 5664 5661 5655 5651 5645 5645 5644 5640 5635 5630 5630 5629 5626 5624 5634 5633 5633 5632 5631 5628 5629 5629 5627 5626 5624 5627 5625 5623 5620
5657 5663 5665 5666 5670 5676 5677 5681 5682 5678 5676 5674 5670 5667 5664 5662 5658 5654 5647 5645 5644 5640 5638 5631 5632 5632 5628 5626 5624 5633 5632 5631 5629 5627 5624 5624 5624 5625 5623 5621 5620 5620 5618 5617
5655 5660 5665 5669 5671 5673 5677 5681 5680 5677 5674 5671 5670 5669 5664 5659 5656 5654 5653 5650 5651 5637 5639 5637 5634 5632 5631 5623 5629 5633 5633 5631 5630 5628 5625 5625 5624 5623 5621 5619 5618 5618 5617 5618
5652 5656 5660 5664 5668 5672 5676 5676 5676 5674 5672 5670 5668 5667 5665 5666 5662 5657 5652 5651 5653 5641 5643 5643 5639 5630 5623 5626 5631 5634 5633 5631 5630 5629 5627 5626 5625 5624 5622 5620 5620 5621 5620 5619
5647 5653 5656 5660 5665 5668 5666 5670 5674 5672 5670 5668 5669 5668 5667 5666 5665 5665 5665 5656 5651 5644 5645 5646 5638 5630 5625 5629 5629 5630 5631 5631 5629 5629 5628 5623 5626 5626 5625 5624 5621 5621 5620 5615
5643 5649 5655 5658 5660 5666 5669 5668 5668 5668 5666 5667 5666 5667 5668 5670 5668 5667 5663 5659 5647 5643 5644 5639 5634 5629 5629 5633 5632 5630 5629 5629 5628 5627 5627 5627 5626 5624 5624 5624 5624 5624 5622 5621
5637 5642 5650 5654 5662 5668 5672 5668 5671 5672 5670 5668 5668 5667 5668 5668 5666 5663 5660 5656 5654 5645 5648 5647 5639 5632 5634 5637 5636 5635 5633 5632 5630 5627 5626 5629 5629 5628 5627 5626 5626 5625 5622 5622
5638 5631 5646 5653 5661 5662 5667 5668 5671 5672 5669 5671 5668 5669 5668 5665 5662 5658 5657 5656 5654 5650 5648 5649 5647 5639 5638 5639 5639 5639 5639 5638 5636 5636 5634 5631 5630 5629 5628 5627 5625 5623 5621 5619